Location: Caledonia
(42.3690°N, 88.8930°W)
Time: 03:24:21
(UTC-05:00)

HST - Visible Passes

Search period start: 31 October 2014 00:00
Search period end: 09 November 2014 23:00
Orbit: 546 x 550 km, 28.5° (Epoch: 30 October)

Date Brightness Start Highest point End Pass type
(mag) Time Alt. Az. Time Alt. Az. Time Alt. Az.
31 Oct 3.3 19:04:59 10° SSW 19:06:33 12° S 19:08:06 10° SSE visible
01 Nov 3.4 18:57:43 10° SSW 18:59:02 11° S 19:00:22 10° SSE visible
02 Nov 3.5 17:50:44 10° SSW 17:51:32 10° S 17:52:19 10° S visible
